Weather in Kozyn

Ukraine / Kyiv Region     50˚12′58″N   30˚39′32″E
temp.,
°C
wind,
m/s
gust,
m/s
humid.,
%
clouds,
%
prec.,
mm/h
press.,
hPa
HPBL,
m
2 december, wed
wed223:00ne4797100 0.4 1028385
02:00−1˚ene3698100 0.8 1027227
05:00−1˚ene3597100 0.3 1027244
08:00−1˚ene259795 0.4 1027236
11:00e238999 0.1 1028357
14:00e3596100 0.2 1027308
17:00−1˚e479397 0.3 1027321
20:00−1˚ese489598 0.3 1027281
3 december, thu
thu323:00−1˚e479795 0.3 1026264
02:00ese149991 0.4 1026155
05:00+1˚ese3699100 0.1 1025233
08:00e4698100 0.3 1026218
11:00+2˚se3699100 0.4 1025230
14:00+2˚se4798100 0.4 1024316
17:00+2˚ese4798100 0.0 1024279
20:00+2˚ese5997100 0.1 1024352
4 december, fri
fri423:00+3˚ese5997100 0.0 1023309
02:00+3˚ese5109794 0.0 1023372
05:00+4˚se5119498 0.0 1022386
08:00+4˚se6129399 0.0 1023420
11:00+5˚se71283100 0.0 1023533
14:00+5˚se7118190 0.0 1023594
17:00+3˚ese613894 0.0 1023496
20:00+2˚se7128822 0.0 1024550
5 december, sat
sat523:00+2˚se5128785 0.0 1024510
02:00+3˚se6108867 0.0 1024561
05:00+4˚se61087100 0.0 1024605
08:00+3˚se61086100 0.0 1025621
11:00+4˚se61084100 0.0 1026654
14:00+4˚se71082100 0.0 1026653
17:00+4˚se61185100 0.0 1026598
20:00+3˚se61182100 0.0 1027580
6 december, sun
sun623:00+2˚se5128472 0.0 1028489
02:00+1˚se6128560 0.0 1028473
05:00se612885 0.0 1028460
08:00se6138510 0.0 1028504
11:00+1˚se712739 0.0 1028622
14:00+2˚se712685 0.0 1027666
17:00ese714710 0.0 1027585
20:00se715670 0.0 1028622